Home > Weather > Metlakatla > Past weeks

Flag for USA Past Weather in Metlakatla, Alaska, USA — Yesterday and Last 2 Weeks

Now
68 °F

Sunny.


Feels Like: 68 °F
Forecast: 55 / 64 °F
Wind: 3 mph from Southwest

Location: Metlakatla - Metlakatla Seaplane Base

Current Time: Jun 28, 2016 at 7:49:41 PM

Latest Report: Jun 28, 2016 at 7:36 PM


Visibility: 10 mi

Pressure: 30.21 "Hg

Humidity: 56%

Dew Point: 52 °F

Location of MetlakatlaLocation

Past Weather in Metlakatla — Graph

°F

Metlakatla Temperature Yesterday

Maximum temperature yesterday: 72 °F (at 1:36 PM)
Minimum temperature yesterday: 50 °F (at 5:16 AM)
Average temperature yesterday: 62 °F

High & Low Weather Summary for the Past Weeks

 TemperatureHumidityPressure
High77 °F (Jun 23, 4:16 PM)100% (Jun 27, 5:36 AM)30.41 "Hg (Jun 27, 5:36 AM)
Low48 °F (Jun 14, 2:56 AM)46% (Jun 14, 3:16 PM)29.71 "Hg (Jun 14, 5:56 PM)
Average59 °F74%30.11 "Hg
* Reported Jun 13 6:16 PM — Jun 28 6:36 PM, Metlakatla, Weather by CustomWeather, © 2016

Note: Actual official high and low records may vary slightly from our data, if they occured in-between our weather recording intervals... More about our weather records

Advertising

Metlakatla Weather History for the Previous 24 Hours

Scroll right to see more
 ConditionsComfort  
Time TempWeatherWind HumidityBarometerVisibility
6:36 PM
Tue, Jun 28
70 °FSunny.7 mph57%30.21 "Hg10 mi
6:16 PM70 °FSunny.9 mph57%30.21 "Hg10 mi
5:56 PM70 °FSunny.8 mph57%30.21 "Hg10 mi
5:36 PM70 °FSunny.10 mph57%30.21 "Hg10 mi
5:16 PM68 °FSunny.6 mph60%30.22 "Hg10 mi
4:56 PM68 °FSunny.10 mph56%30.22 "Hg10 mi
4:16 PM68 °FSunny.9 mph56%30.23 "Hg10 mi
3:56 PM66 °FSunny.10 mph60%30.24 "Hg10 mi
3:36 PM66 °FSunny.13 mph60%30.24 "Hg10 mi
3:16 PM66 °FSunny.12 mph60%30.24 "Hg10 mi
2:56 PM68 °FSunny.13 mph60%30.25 "Hg10 mi
2:36 PM66 °FSunny.10 mph64%30.25 "Hg10 mi
2:16 PM68 °FSunny.13 mph60%30.25 "Hg10 mi
1:36 PM70 °FSunny.12 mph53%30.25 "Hg10 mi
1:16 PM70 °FSunny.10 mph57%30.26 "Hg10 mi
12:56 PM66 °FSunny.9 mph60%30.26 "Hg10 mi
12:36 PM66 °FSunny.9 mph60%30.26 "Hg10 mi
12:16 PM66 °FSunny.8 mph60%30.26 "Hg10 mi
11:56 AM66 °FSunny.9 mph64%30.27 "Hg10 mi
11:36 AM64 °FSunny.12 mph64%30.27 "Hg10 mi
11:16 AM64 °FSunny.12 mph64%30.27 "Hg10 mi
10:56 AM68 °FSunny.7 mph56%30.27 "Hg10 mi
10:36 AM66 °FSunny.No wind68%30.27 "Hg10 mi
10:16 AM64 °FSunny.No wind68%30.27 "Hg10 mi
9:56 AM64 °FSunny.6 mph68%30.28 "Hg10 mi
9:36 AM66 °FSunny.6 mph64%30.28 "Hg10 mi
8:36 AM61 °FSunny.No wind77%30.28 "Hg10 mi
8:16 AM63 °FSunny.No wind73%30.27 "Hg10 mi
7:36 AM61 °FSunny.No wind83%30.27 "Hg10 mi
7:16 AM63 °FSunny.No wind83%30.27 "Hg10 mi
6:36 AM59 °FPassing clouds.No wind88%30.27 "Hg10 mi
6:16 AM57 °FSunny.No wind88%30.27 "Hg10 mi
5:56 AM57 °FSunny.No wind88%30.27 "Hg10 mi
5:16 AM55 °FSunny.No wind94%30.27 "Hg10 mi
4:56 AM55 °FClear.5 mph88%30.26 "Hg10 mi
4:36 AM55 °FClear.6 mph88%30.26 "Hg10 mi
4:16 AM55 °FClear.6 mph88%30.26 "Hg10 mi
3:16 AM55 °FClear.6 mph88%30.25 "Hg10 mi
2:56 AM55 °FClear.8 mph88%30.26 "Hg10 mi
2:36 AM55 °FClear.7 mph88%30.26 "Hg10 mi
2:16 AM55 °FClear.5 mph88%30.25 "Hg10 mi
1:56 AM55 °FClear.5 mph88%30.25 "Hg10 mi
1:36 AM55 °FClear.5 mph88%30.25 "Hg10 mi
12:56 AM55 °FClear.3 mph88%30.25 "Hg10 mi
12:36 AM55 °FClear.No wind82%30.25 "Hg10 mi
12:16 AM55 °FClear.No wind82%30.24 "Hg10 mi
11:16 PM
Mon, Jun 27
59 °FClear.No wind82%30.24 "Hg10 mi
10:56 PM59 °FClear.3 mph72%30.24 "Hg10 mi
10:36 PM59 °FClear.No wind72%30.24 "Hg10 mi
10:16 PM61 °FSunny.3 mph72%30.23 "Hg10 mi
9:56 PM61 °FSunny.5 mph68%30.23 "Hg10 mi
9:16 PM63 °FSunny.5 mph68%30.22 "Hg10 mi
8:56 PM64 °FSunny.3 mph68%30.22 "Hg10 mi
8:36 PM64 °FSunny.3 mph68%30.21 "Hg10 mi
8:16 PM64 °FSunny.6 mph68%30.21 "Hg10 mi
7:56 PM66 °FSunny.7 mph64%30.21 "Hg10 mi
7:36 PM66 °FSunny.8 mph64%30.21 "Hg10 mi
7:16 PM68 °FSunny.7 mph64%30.21 "Hg10 mi
Weather by CustomWeather, © 2016

See weather overviewHow to use our weather pages